Zurück zum Katalog

CHINASAT-9C

AktivKommunikationGEO
NORAD 64470·PAYLOAD·🇨🇳 China

Gestartet Jun 20, 2025 von Xichang Satellite Launch Center

Loading…

TLE

AktuellSource: Space-Track

Epoche: Sep 14, 2026, 14:14 UTC

1 64470U 25132A   26257.59338775 -.00000255  00000-0  00000-0 0  9996
2 64470   0.0090 168.9000 0002952 358.3327 132.1699  1.00272887  5040

Verfolge CHINASAT-9C in Echtzeit mit AllMySat

Download on the App Store